Theta_e
352 350 353 348 350 347 348 348 344 344 345 343 345 347 348 350 351 350 343 335 336 334 332 333 331 330 331 336 336 330 329 328 328 327 328 328 328 328 328 328 329 328 329 330 330 330 330 330 330
353 351 351 355 350 347 348 344 346 345 346 343 345 345 347 351 351 348 339 337 334 335 332 331 330 329 329 331 330 328 327 327 329 330 335 337 337 337 337 336 332 329 329 332 334 335 335 335 336
355 356 357 352 350 346 347 344 347 345 344 346 344 345 348 353 350 343 343 343 334 334 333 331 330 329 329 329 329 329 329 329 333 335 336 336 335 334 334 335 335 331 332 336 334 333 335 335 335
357 359 360 358 356 347 344 344 349 346 344 343 344 347 348 349 346 346 347 343 335 333 333 332 332 330 330 329 330 331 332 334 335 336 339 339 339 335 334 334 333 335 335 334 332 333 338 336 333
354 359 358 359 348 342 341 345 346 347 344 344 345 348 351 348 346 346 347 342 337 338 336 332 333 332 331 331 330 330 331 332 333 336 339 339 337 335 334 334 334 333 334 333 333 335 338 335 333
349 353 354 351 345 343 344 349 348 345 345 347 348 349 350 350 347 344 345 342 339 340 340 337 337 337 336 334 332 332 332 333 335 338 338 337 336 334 333 334 334 334 334 334 334 333 337 333 333
352 353 356 359 347 344 346 350 347 346 346 346 347 345 350 350 343 343 340 339 339 339 338 339 338 338 338 338 338 338 337 338 337 336 336 335 333 333 334 335 335 335 334 336 334 337 335 330 332
354 353 359 359 345 344 345 347 347 345 348 346 346 347 350 348 346 340 339 338 338 337 336 335 335 336 336 336 336 336 336 335 334 333 333 333 334 334 334 333 331 334 336 337 336 330 329 331 332
349 348 355 355 344 343 342 344 346 347 347 346 346 347 347 349 348 344 339 338 336 335 335 334 333 333 334 334 334 334 333 333 332 331 332 333 334 335 335 332 334 335 331 328 332 339 341 341 339
350 350 352 352 350 341 341 345 348 348 347 344 345 346 348 350 349 347 339 338 337 338 334 331 331 332 333 334 334 334 335 336 334 334 334 332 334 335 334 336 334 333 334 337 341 342 345 343 342
351 349 349 351 353 343 341 344 346 346 346 344 345 347 349 350 349 348 347 346 347 346 339 330 331 332 333 334 336 337 339 335 334 332 332 342 341 343 344 345 342 338 338 345 345 345 343 345 345
352 352 353 354 352 345 345 345 346 346 345 344 343 345 348 350 350 348 347 347 348 348 344 333 333 333 334 336 336 339 343 336 334 332 332 341 347 347 344 345 346 345 339 339 341 346 347 344 345
354 353 352 353 350 350 348 347 345 347 345 344 343 345 345 347 348 347 346 348 348 348 346 343 341 342 337 335 342 342 342 343 340 338 337 340 346 346 345 347 344 345 345 344 345 346 347 345 345
352 353 354 353 353 350 347 347 346 346 345 344 344 344 344 345 345 346 346 347 348 347 345 348 347 348 344 337 345 346 344 346 346 345 345 345 343 345 346 346 344 346 346 345 344 344 346 346 344
352 354 354 352 350 350 347 349 347 346 345 344 344 344 344 344 344 345 344 344 344 345 344 347 348 349 347 346 345 346 346 345 346 347 348 348 346 342 347 346 347 347 347 346 346 344 344 346 347
357 357 357 348 351 349 345 352 347 346 345 344 344 344 344 344 344 344 344 344 344 344 345 345 347 349 349 347 347 347 345 345 346 347 349 348 349 343 346 347 347 348 347 347 347 346 345 345 347
354 358 355 350 347 349 347 345 346 345 345 344 344 344 345 345 345 344 344 344 344 344 344 345 345 346 347 347 347 347 347 347 346 348 347 346 347 348 345 346 348 346 348 348 347 345 346 347 348
353 354 353 354 351 349 350 348 346 346 344 343 344 344 345 345 345 344 345 345 344 344 344 344 344 344 346 347 346 347 347 348 347 346 346 346 345 346 347 346 345 345 346 345 347 347 347 348 348
354 356 358 354 350 351 350 350 347 346 347 343 342 343 344 344 344 343 344 344 344 344 344 344 344 344 345 344 345 345 344 341 346 346 343 345 346 345 345 345 344 344 345 345 341 341 347 348 347
356 358 357 352 349 350 350 352 349 344 346 347 344 343 343 343 344 343 344 343 344 344 344 344 344 345 345 344 344 344 340 335 331 330 329 333 344 344 344 344 344 345 346 346 345 341 337 345 347
350 352 353 354 350 352 351 350 347 346 348 348 349 346 344 343 343 343 343 343 343 344 344 344 345 345 345 346 344 342 341 342 342 341 340 338 337 339 342 342 343 344 344 345 345 344 343 339 339
353 346 349 350 352 356 344 348 339 343 346 348 350 349 345 344 343 343 343 343 343 343 342 343 344 345 344 345 341 341 343 344 343 344 344 346 347 348 348 348 347 348 348 347 347 346 345 346 344
347 343 345 341 341 346 346 340 337 338 345 345 347 350 350 346 345 343 343 342 343 342 343 343 344 345 345 347 345 343 343 343 344 344 344 345 349 351 351 351 351 351 350 350 350 348 349 347 346
346 343 340 338 335 340 340 339 338 338 340 341 345 348 350 350 348 344 344 343 343 342 343 343 344 346 346 346 348 349 349 349 349 349 349 349 348 350 351 353 353 353 354 354 352 350 348 349 348
339 338 343 346 345 344 338 339 338 340 335 339 342 345 350 350 349 348 346 344 343 343 343 344 345 346 347 347 347 349 350 350 350 351 351 352 352 352 353 356 357 357 356 355 353 351 350 351 350
337 337 341 348 346 341 341 344 341 336 338 337 341 343 345 346 348 350 350 349 347 346 344 345 347 348 347 348 348 349 350 349 350 351 351 352 353 353 353 356 357 354 356 355 352 348 350 353 351
332 334 332 331 331 339 340 335 335 335 333 334 335 336 338 340 342 345 348 349 350 349 348 346 347 349 349 349 348 349 349 349 351 352 353 354 354 354 356 355 349 342 344 340 341 338 338 344 342
331 326 325 324 339 340 335 336 335 332 333 333 333 336 338 339 340 342 343 347 348 349 348 349 348 348 348 349 350 351 352 353 355 350 340 338 350 354 351 349 337 333 338 335 337 337 338 339 337
329 328 321 321 327 334 335 332 331 331 329 334 336 338 339 339 341 342 343 343 344 344 342 342 347 348 344 342 341 341 348 356 350 349 342 336 338 341 341 341 339 334 332 335 336 333 334 336 337
330 330 323 326 328 325 329 338 334 331 334 338 339 339 340 341 343 345 346 347 347 346 343 343 340 338 343 352 357 358 359 346 340 338 335 334 338 340 342 330 337 333 335 334 333 332 333 332 332
Wind_Speed
7 8 10 10 1 2 1 4 2 5 2 3 19 3 5 4 2 3 21 30 31 31 29 27 27 26 26 26 26 25 24 22 21 20 18 15 14 14 13 11 9 8 7 7 6 7 6 7 9
7 9 14 2 1 4 3 2 11 8 9 16 11 8 5 4 4 15 37 29 30 30 29 28 28 26 26 26 26 24 22 21 19 16 15 14 13 11 10 11 10 9 7 6 5 4 5 5 6
4 8 8 4 2 3 3 3 9 13 26 13 7 8 4 4 11 35 31 31 31 30 29 28 27 26 25 25 24 22 20 19 17 15 13 11 10 10 10 9 9 9 8 6 5 5 4 4 5
3 1 3 3 2 4 3 7 15 12 8 5 16 7 7 3 31 26 30 32 31 29 28 27 26 26 24 24 23 21 19 18 15 13 11 9 9 9 9 10 10 10 8 7 6 5 5 6 6
3 3 3 2 3 1 3 11 19 5 7 12 6 5 9 17 17 27 28 32 31 29 27 26 24 23 23 22 22 20 19 17 14 12 11 9 8 9 9 10 10 10 10 10 8 7 6 6 7
4 3 3 2 3 4 4 13 10 4 7 14 12 11 9 9 20 25 29 30 28 27 26 26 24 23 22 22 20 19 18 16 14 12 12 11 9 9 10 11 11 11 11 10 10 8 8 8 9
1 2 2 3 1 4 6 14 7 8 10 7 23 5 8 18 21 26 28 26 26 24 23 24 24 22 21 20 19 17 17 15 13 13 12 11 10 10 9 10 11 11 10 9 9 8 8 9 10
2 2 4 2 3 3 11 8 10 17 3 20 15 7 8 30 25 26 27 26 25 24 23 22 22 22 21 20 18 17 16 15 13 12 11 11 11 9 8 8 10 9 9 8 8 8 8 9 10
1 3 2 3 2 2 13 5 10 7 18 7 10 12 22 35 30 29 30 28 27 25 23 22 21 20 20 19 18 16 15 13 12 12 11 11 10 9 9 8 10 10 9 9 8 8 7 8 10
6 3 3 3 6 5 7 14 13 6 9 4 16 16 38 36 34 31 32 29 26 23 22 21 21 20 20 19 17 16 15 13 12 12 13 12 11 11 10 10 10 10 10 10 8 6 6 7 9
5 3 6 8 16 13 13 13 7 17 2 11 30 34 38 37 33 30 29 24 19 18 20 21 20 20 19 18 17 16 14 13 12 14 14 15 15 13 12 11 10 10 11 11 8 6 4 7 7
4 3 7 16 23 10 9 12 9 4 4 21 24 36 39 39 36 30 27 26 24 20 19 20 19 18 20 18 16 15 14 14 15 15 17 19 16 15 13 11 9 7 10 11 10 7 5 5 9
1 6 11 24 24 5 11 9 7 6 15 20 24 33 31 34 33 28 19 21 23 22 19 18 18 16 16 18 17 14 14 14 14 15 17 19 17 16 16 13 9 9 7 7 8 6 6 4 7
2 12 16 16 21 5 10 5 8 9 21 27 28 33 32 31 28 26 25 24 26 23 17 17 18 16 15 21 18 14 16 16 15 14 13 14 17 17 18 14 12 13 13 14 12 10 9 7 8
6 9 15 5 4 3 16 5 1 23 26 28 29 30 30 27 29 27 25 25 23 24 21 20 21 20 19 20 19 17 16 15 15 15 16 15 13 18 19 17 16 18 16 17 16 16 17 17 13
5 4 5 5 1 4 4 3 3 23 27 25 30 30 30 30 30 28 29 30 27 23 25 22 21 23 22 21 22 21 20 20 20 16 18 19 18 17 20 19 17 15 19 20 20 20 20 18 16
1 3 5 7 8 2 2 4 6 25 23 23 27 30 32 31 30 30 26 30 31 28 26 24 23 25 25 23 22 24 24 23 21 21 18 20 20 19 21 21 19 18 22 23 22 22 22 22 21
5 4 5 5 2 4 3 3 7 23 23 24 28 31 31 31 31 28 28 27 29 29 27 24 22 24 25 25 22 22 23 27 25 25 26 26 23 22 24 23 22 20 20 24 28 28 27 25 22
3 4 6 5 8 1 5 3 12 20 20 19 26 31 31 31 26 25 27 26 27 28 30 29 25 24 24 25 25 25 24 25 30 33 33 32 28 24 25 24 23 23 24 24 23 31 33 31 26
8 6 7 11 12 6 4 4 3 10 17 25 27 31 33 30 29 27 30 27 27 25 26 29 27 25 25 26 26 25 24 23 23 26 29 33 35 31 27 26 25 24 25 27 25 22 30 36 33
11 7 8 5 3 4 5 4 5 5 14 21 25 31 33 33 30 31 34 31 30 28 26 27 27 26 27 27 26 28 29 29 27 28 28 29 29 31 32 29 26 25 26 28 28 28 26 29 35
3 8 12 5 3 4 3 3 5 6 7 7 21 28 35 35 34 33 36 35 34 31 29 27 26 27 28 30 31 33 33 34 31 29 26 25 26 25 25 25 26 27 28 30 29 29 30 27 30
9 2 9 3 5 4 0 3 7 3 7 10 17 31 37 39 36 37 38 38 35 31 31 29 30 32 31 32 34 34 35 35 33 33 30 28 27 28 27 26 26 29 33 34 34 34 30 30 33
5 6 4 4 4 2 5 5 5 5 10 6 12 30 37 41 40 39 37 39 38 38 36 35 34 34 34 38 38 39 38 35 36 34 32 31 31 29 31 31 30 30 29 31 31 32 35 32 34
5 6 3 3 3 5 2 4 9 4 8 10 14 29 39 40 39 38 40 42 42 42 42 41 40 39 37 39 39 41 42 41 41 36 33 30 30 32 32 30 30 33 30 28 27 31 35 32 35
5 7 6 6 4 3 2 4 5 6 10 9 10 26 33 34 36 40 41 41 42 42 45 44 43 42 44 45 43 44 43 46 45 42 38 33 30 31 30 34 31 32 32 27 24 24 25 27 30
3 3 4 7 2 3 2 6 6 6 8 10 8 3 15 18 20 30 33 38 41 42 44 44 44 44 46 49 50 51 50 50 46 34 34 39 38 32 34 32 31 25 24 22 22 23 25 25 29
4 6 1 3 4 2 4 4 4 9 6 7 10 10 6 6 9 14 16 22 26 30 32 37 42 47 48 49 47 42 42 42 33 22 22 50 41 38 35 33 26 24 25 25 23 22 24 26 29
4 2 7 6 4 5 2 5 4 9 6 8 6 9 7 7 5 3 5 7 11 13 16 19 29 36 38 35 33 29 32 28 20 33 60 52 42 37 37 30 28 24 24 24 22 21 21 24 26
2 2 3 5 2 2 4 4 6 7 5 17 18 23 19 15 13 10 6 3 1 5 9 15 19 23 28 19 12 14 13 6 20 30 19 25 33 36 37 26 33 27 24 25 25 25 26 27 30
Wind_Direction
136 140 163 158 94 139 307 77 179 129 180 223 166 233 145 31 186 196 145 159 161 156 156 158 156 156 152 152 148 145 143 142 143 145 148 151 155 160 166 166 167 160 155 143 141 141 138 138 147
153 173 175 221 343 53 306 63 148 173 162 140 112 102 51 72 90 141 150 158 163 159 159 159 159 158 154 152 153 153 152 152 153 157 154 153 155 155 163 167 168 168 163 158 149 149 148 154 162
133 180 186 140 120 166 167 146 120 134 139 149 122 83 87 127 146 144 154 160 163 164 162 161 162 164 160 158 163 162 163 162 163 162 166 174 177 180 179 167 163 167 174 173 173 177 193 198 190
345 225 78 65 297 261 205 148 144 135 120 105 114 76 74 327 143 153 158 164 165 166 164 166 167 168 167 168 170 170 172 171 175 174 180 185 186 185 187 192 192 185 191 204 210 221 203 194 192
354 18 39 320 264 152 82 152 154 147 112 119 117 104 96 139 151 159 162 168 169 167 169 170 172 173 174 178 181 181 184 185 188 191 195 197 197 197 202 203 203 205 207 216 221 212 213 200 190
351 54 46 8 261 111 111 156 137 91 108 108 99 99 139 170 166 163 165 168 173 170 172 175 175 178 181 184 185 188 190 192 194 199 200 202 208 213 218 219 220 221 221 221 220 212 203 205 198
112 62 257 323 195 124 156 159 153 139 136 119 133 92 144 168 153 160 163 169 172 173 172 177 180 183 185 187 189 192 195 198 202 206 204 208 213 213 217 223 224 221 220 221 215 208 204 200 199
116 83 302 256 295 103 155 159 163 132 141 144 142 153 167 167 151 159 165 171 176 179 180 183 184 187 189 189 192 195 198 201 208 210 211 213 206 202 204 210 208 208 205 202 198 200 202 196 195
237 51 333 3 354 164 150 137 161 154 143 156 198 187 166 159 157 161 171 175 180 185 187 188 191 193 193 192 192 194 198 204 209 211 207 205 194 186 185 178 182 186 188 187 185 196 204 206 206
47 71 283 285 286 198 163 134 141 127 154 53 110 141 153 163 166 165 170 177 182 189 190 194 197 198 196 195 196 197 202 204 202 201 199 191 183 175 176 173 174 172 174 177 193 211 228 217 216
343 203 329 317 332 197 151 145 124 132 252 191 145 149 163 170 177 176 178 183 179 184 188 195 200 201 201 200 198 201 204 207 201 196 190 177 174 180 180 183 186 186 187 184 191 201 213 219 209
356 332 339 322 319 217 147 145 135 161 202 168 160 158 169 177 183 186 191 195 198 195 195 196 199 204 206 202 200 205 209 203 201 194 190 191 192 199 194 185 182 193 213 220 227 225 217 233 210
147 328 340 329 301 103 133 134 139 115 141 152 153 161 169 183 189 193 199 205 205 205 204 200 199 202 205 201 196 189 182 184 182 187 195 198 201 195 189 189 186 204 197 209 222 229 233 221 215
185 297 317 317 309 29 103 90 109 152 151 155 163 172 180 185 193 198 204 207 210 210 211 210 203 196 193 194 197 192 198 200 200 200 202 209 210 206 209 211 208 220 217 224 233 257 266 263 236
359 353 336 292 264 155 123 15 107 158 160 161 173 181 186 191 195 205 209 208 216 217 210 209 210 199 198 198 196 195 193 203 217 228 230 229 225 217 213 221 226 226 226 224 229 234 248 256 254
18 45 331 287 2 207 133 208 128 168 165 172 182 190 196 206 208 210 218 216 219 221 216 215 212 211 209 211 208 210 207 210 217 235 238 230 228 224 224 226 231 234 235 231 234 243 249 253 253
37 254 232 302 195 143 101 139 201 180 181 183 194 196 204 211 218 218 215 222 227 224 223 219 218 220 218 221 224 227 225 224 226 229 232 229 228 227 228 237 245 252 250 250 251 244 251 258 259
193 235 261 250 285 158 140 135 168 184 192 198 202 205 211 215 219 223 221 223 227 229 231 228 228 230 228 226 230 232 232 232 235 239 246 246 236 230 233 240 250 250 255 258 255 253 251 261 268
207 216 257 240 248 139 217 125 191 197 204 206 213 211 216 221 218 223 217 222 219 224 226 227 230 232 227 228 231 235 243 247 244 247 251 251 250 245 241 244 246 251 257 260 264 252 252 255 262
253 263 268 281 232 157 158 242 146 181 213 208 214 215 220 222 223 220 213 218 218 223 225 229 237 238 235 235 239 240 243 244 245 245 247 247 248 251 246 244 249 254 260 259 259 260 253 253 254
255 231 258 212 73 58 111 328 252 198 216 222 228 225 224 222 222 218 215 220 222 226 229 233 238 241 240 243 242 239 238 240 234 231 231 233 237 240 242 245 248 255 261 262 259 258 259 259 258
265 232 238 163 124 183 72 254 264 222 228 220 226 228 227 226 225 224 219 221 224 230 232 232 233 234 236 236 233 235 239 241 242 244 244 238 233 232 232 238 245 252 258 261 264 267 263 262 262
225 77 172 154 93 114 118 64 266 160 230 234 226 231 234 232 228 225 223 226 228 231 231 231 234 237 235 237 239 241 242 247 253 255 253 250 246 245 244 243 248 258 261 263 264 263 270 269 270
266 108 65 87 90 27 230 150 276 188 213 239 225 233 238 236 234 232 233 233 234 235 236 238 239 241 243 246 247 248 251 253 255 257 258 259 257 252 254 258 258 256 260 265 268 269 269 274 270
97 65 353 4 15 222 255 144 242 248 232 210 212 226 233 238 236 236 235 234 238 239 240 241 243 247 244 246 250 254 257 258 259 262 263 265 268 264 260 258 261 265 265 264 264 264 268 270 270
199 154 158 201 196 263 49 232 253 253 260 223 242 239 237 235 237 237 241 240 240 245 245 246 250 253 253 250 253 257 258 258 260 263 266 267 267 269 265 266 267 268 269 266 264 266 271 272 273
186 185 174 108 40 85 240 302 321 34 45 55 24 52 214 216 235 243 250 253 250 250 252 253 255 261 263 264 262 259 259 259 260 269 270 287 279 275 270 262 265 265 267 266 266 270 275 276 278
182 153 77 23 131 196 316 299 268 356 338 37 25 37 96 164 207 234 250 255 259 264 270 269 262 263 265 267 271 274 265 257 244 264 306 302 289 278 270 263 260 263 269 271 273 276 279 280 282
348 70 59 110 108 146 126 286 274 273 199 111 56 55 53 51 45 334 298 289 287 292 295 290 276 278 281 278 263 268 263 246 253 273 257 290 261 269 262 262 267 260 264 271 276 282 282 282 283
209 156 106 114 229 80 128 289 350 355 355 99 83 84 95 100 101 91 76 60 313 306 304 295 292 300 316 313 297 269 258 297 323 312 269 224 222 244 251 259 264 261 261 267 276 284 285 286 285